Find Starlink 3285

NORAD ID: 50181 Int'l Des: 2021-125 Owner: SPXS Country: US Constellation: starlink operational
LEOCIRCULAR

現在のビュー

3D地球を読み込み中...

About Starlink 3285

Starlink 3285 (NORAD 50181) is a starlink constellation satellite (v1.5) launched Dec 18, 2021 by SPXS of US. It operates in LEO, CIRCULAR orbit with a mass of 290.00 kg.

Starlink 3285について

説明を読み込み中...

次回通過

Passes for default location (London). Set your location on the main map for personalized predictions.

高度履歴

Loading altitude history...

軌道要素

1 50181U 21125AB 26168.29563317 .00000415 00000-0 44194-4 0 9991
2 50181 53.1602 161.8857 0001005 92.1028 268.0079 15.08831252251643
Epoch: Jun 17, 2026 • Age: 20 hours

現在のステータス

高度 557.1 km
速度 7.58 km/s
衛星直下点 -48.40°S, 142.76°E
打ち上げ日 Dec 18, 2021
運用期間 4.4 years
タイプ internet

技術仕様

分類 Payload
質量 290.00 kg
乾燥質量 270.00 kg
総質量 290.00 kg
長さ 0.20 m
直径 2.80 m
スパン 9.00 m
形状 Box + pan
製造者 SPXS
バスタイプ Starlink
フェーズステータス In Orbit
所有者/国 SPXS/US

Most Searched